Other Public Products
Issued by NWS Grand Forks, ND

Home | Current Version | Previous Version | Text Only | Print | Product List | Glossary On
Versions: 1 2 3 4 5 6 7 8 9 10 11 12 13 14 15 16 17 18 19 20 21 22 23 24 25 26 27 28 29 30 31 32 33 34 35 36 37 38 39 40 41 42 43 44 45 46 47 48 49 50
000
FPUS83 KFGF 250531
OPUFGF
PRAIRIE TO PINES WEATHER ROUNDUP
NATIONAL WEATHER SERVICE EASTERN NORTH DAKOTA/GRAND FORKS ND
1200 AM CDT SUN SEP 25 2016

 **SATELLITE DATA USED TO AUGMENT SKY COVER AT AUTOMATED STATIONS**
 *****  WEATHER ACROSS EASTERN NORTH DAKOTA  *****

CITY           SKY/WX    TMP DP  RH WIND       PRES   REMARKS
GRAND FORKS    CLOUDY    68  65  90 S13       29.73S
GRAND FORKS AF CLOUDY    68  67  96 S12       29.73R
GRAND CITY NWS NOT AVBL
BUXTON           N/A     71  71  99 S12         N/A
DEVILS LAKE    CLEAR     61  58  90 S8        29.72S
FARGO          CLOUDY    69  66  90 S16G22    29.78F
WAHPETON ARPT  PTCLDY    66  63  88 S12       29.81F
$$

 *****  WEATHER ACROSS CENTRAL AND WESTERN NORTH DAKOTA  *****

CITY           SKY/WX    TMP DP  RH WIND       PRES   REMARKS
JAMESTOWN      CLEAR     59  49  69 SW13      29.75R
BISMARCK       PTCLDY    55  49  80 SW8       29.75S
MINOT          CLOUDY    57  54  89 NW16      29.75S
MINOT AFB      CLOUDY    56  53  89 N15       29.74S
GARRISON         N/A     56  56 100 N16       29.74R
WILLISTON      RAIN      51  47  86 NW28G40   29.91R FOG
DICKINSON      LGT RAIN  49  48  97 NW24G36   29.84R FOG
HETTINGER      RAIN      49  46  90 NW37G49   29.90R FOG
$$

 *****  OTHER OBSERVATIONS NORTHEAST NORTH DAKOTA  *****

CITY           SKY/WX    TMP DP  RH WIND       PRES   REMARKS
WALHALLA       FAIR      66  66 100 SE10      29.70F
LANGDON        FAIR      63  63 100 S10       29.71F
CAVALIER       CLOUDY    66  66 100 SE10G16   29.70F FOG
GRAFTON        CLOUDY    66  66 100 SE14G22   29.74S
CANDO          FAIR      57  57 100 S5        29.72S
FORT TOTTEN      N/A     62  54  73 S6        29.95
ROLLA          FAIR      59  59 100 W8        29.70F
RUGBY          FOG       59  59 100 NW16      29.71R VSB 1/2
 ***** THE ABOVE OBSERVATIONS ARE NON NWS ARE NOT QUALITY
        CONTROLLED AND MAY MIS-REPORT RAIN FOR SNOW...
$$

 *****  OTHER OBSERVATIONS SOUTHEAST NORTH DAKOTA *****

CITY           SKY/WX    TMP DP  RH WIND       PRES   REMARKS
COOPERSTOWN    FAIR      63  55  77 S13G20    29.75F
VALLEY CITY    FAIR      59  52  77 SW12      29.79S
OAKES          NOT AVBL
GWINNER        FAIR      61  55  82 S8        29.81R
SHEYENNE NWR     N/A     66  65  96 S8        29.95
BUFFALO          N/A     65  55  69 S9          N/A
WYNDMERE         N/A     66  64  94 S6          N/A
 ***** THE ABOVE OBSERVATIONS ARE NON NWS ARE NOT QUALITY
       CONTROLLED AND MAY MIS-REPORT RAIN FOR SNOW...
$$

  *****  WEATHER ACROSS NORTHERN MINNESOTA  *****

CITY           SKY/WX    TMP DP  RH WIND       PRES   REMARKS
FLAG ISLAND    CLOUDY    63  61  94 SE14      29.84S
WARROAD        CLOUDY    64  61  88 SE15G22   29.83F
ROSEAU         CLOUDY    66  61  82 SE17      29.80F
HALLOCK        CLOUDY    66  64  94 SE17      29.73F
THF RVR FALLS  CLOUDY    66  63  90 SE15      29.80F
HALSTAD          N/A     67  66  96 S16         N/A
FOSSTON        CLOUDY    66  63  88 S15G21    29.83S
BAUDETTE       LGT RAIN  63  61  93 SE13      29.86F
WASKISH        CLOUDY    64  61  88 SE13G18   29.88F
CROOKSTON      MOCLDY    66  66 100 S16       29.77S
$$
  *****  WEATHER ACROSS CENTRAL AND WEST MINNESOTA  *****

CITY           SKY/WX    TMP DP  RH WIND       PRES   REMARKS
BEMIDJI        CLOUDY    65  62  91 SE9       29.87F
PARK RAPIDS    CLOUDY    67  63  87 S15       29.88F
WADENA         LGT RAIN  66  64  94 S15       29.87F
DETROIT LAKES  CLOUDY    66  63  88 S12       29.85F
MOORHEAD       CLOUDY    66  64  94 S13       29.80F
FERGUS FALLS   MOCLDY    66  66 100 S13       29.86F
ELBOW LAKE     CLOUDY    67  66  97 S12       29.86S
MORRIS MN      CLOUDY    68  66  94 SE8       29.86F
STAPLES        LGT RAIN  64  63  94 SE10G16   29.91S
WHEATON        MOCLDY    68  66  94 S10G17    29.85F
$$
  *****  WEATHER ELSEWHERE ACROSS MINNESOTA  *****

CITY           SKY/WX    TMP DP  RH WIND       PRES   REMARKS
DULUTH         CLOUDY    61  59  93 SE13      30.01S
INTRNTL FALLS  CLOUDY    62  59  90 SE12      29.93F
ELY            CLOUDY    61  54  77 SE8       30.00F
CLOQUET        CLOUDY    61  57  88 SE6       30.00F
BRAINERD       RAIN      64  63  96 SE10G21   29.93F FOG
HIBBING        CLOUDY    61  58  90 SE15G22   29.99S
ALEXANDRIA     CLOUDY    67  67 100 SE16      29.89F
SAINT CLOUD    CLOUDY    66  65  96 SE10      29.94F
MINNEAPOLIS    CLOUDY    68  63  84 SE13      29.98R
$$

  *****  WEATHER ACROSS SOUTH DAKOTA  *****

CITY           SKY/WX    TMP DP  RH WIND       PRES   REMARKS
SIOUX FALLS    CLOUDY    70  68  93 SW7       29.91S
BROOKINGS      CLOUDY    67  66  97 S7          N/A
WATERTOWN      PTCLDY    65  63  93 SW10      29.87S
HURON          CLEAR     57  47  69 W10       29.91R
SISSETON         N/A     66  65  96 S9        29.83S
ABERDEEN       CLEAR     57  48  72 SW10      29.85R
MITCHELL       CLEAR     61  46  57 W14       29.93R
PIERRE         CLEAR     53  40  61 SW15      29.92S
MOBRIDGE       MOCLDY    54  43  66 S14G22    29.78F
RAPID CITY     CLOUDY    54  39  57 NW17G30   30.05R
$$

  *****  SOME WEATHER IN NEARBY STATES *****

CITY           SKY/WX    TMP DP  RH WIND       PRES   REMARKS
GLASGOW MT     PTCLDY    50  43  77 W18G26    30.11R
GREAT FALLS MT CLEAR     43  38  82 S6        30.30R
CHEYENNE WY    MOCLDY    46  35  65 NW14G22   30.30R
SCOTTSBLUFF NE CLEAR     45  41  86 W6        30.24R
OMAHA NE       CLOUDY    70  66  87 SE7       29.96F
DES MOINES IA  CLOUDY    69  67  93 SE6       30.00F THUNDER
DAVENPORT IA   PTCLDY    69  65  86 E9        30.06F
CHICAGO IL     CLEAR     68  63  84 E8        30.12F
EAU CLAIRE WI  PTCLDY    63  59  87 SE7       30.05F
LA CROSSE WI   CLOUDY    66  62  87 E7        30.06F
$$

  *****  SOME NATIONAL WEATHER *****

CITY           SKY/WX    TMP DP  RH WIND       PRES   REMARKS
LA GUARDIA NY  CLEAR     63  46  54 N9        30.14S
RALEIGH NC     PTCLDY    73  70  90 E9        30.08R
ATLANTA GA     PTCLDY    76  67  73 CALM      30.06S
NEW ORLEANS LA CLEAR     79  74  84 S3        30.01R
OKLAHOMA CITY  TSTM      70  68  93 SW5       30.00R FOG
ALBUQUERQUE NM CLEAR     59  33  37 N8        30.18S
SALT LAKE CITY CLEAR     51  43  74 SW6       30.36R
LOS ANGELES CA CLEAR     71  52  50 SE8       29.96S
BOISE ID       CLEAR     53  34  48 CALM      30.34R
SEATTLE WA     CLOUDY    63  46  54 NE6       30.38R
$$

*** WEATHER ACROSS MANITOBA...SASKATCHEWAN AND ONTARIO ***
                ***ONTARIO***

CITY           SKY/WX    TMP DP  RH WIND       PRES   REMARKS
GERALDTON      LGT RAIN  54  48  82 VRB2      30.16F
THUNDER BAY    PTCLDY    59  55  88 E9        30.09F
SIOUX LOOKOUT  CLOUDY    59  52  77 S9        29.96F
TORONTO        CLEAR     52  41  66 N7        30.25S
BIG TROUT LK   MOCLDY    54  43  66 SE13G20   30.04F
PICKLE LAKE    NOT AVBL
DRYDEN         CLOUDY    63  57  82 S13G21    29.95S
KENORA         LGT RAIN  61  61 100 SE12G23   29.88F
$$
                *** MANITOBA***

CITY           SKY/WX    TMP DP  RH WIND       PRES   REMARKS
BRANDON        PTCLDY    59  57  94 NW10      29.66F
DAUPHIN        CLOUDY    54  52  94 N10       29.72F
ISLAND LAKE    CLOUDY    55  54  94 SE10G17   29.85F
PILOT MOUND      N/A     66  64  94 S7          N/A
THE PAS        LGT RAIN  52  50  93 NW14      29.80F
THOMPSON       LGT RAIN  50  50 100 VRB2      29.80F
WINNIPEG       CLOUDY    66  63  88 S15       29.71
LYNN LAKE      CLOUDY    46  46 100 SW3       29.79F FOG
CHURCHILL      LGT RAIN  52  43  71 SE14      29.97F
GILLAM         LGT RAIN  52  46  82 E8        29.89F
$$
                ***SASKATCHEWAN***

CITY           SKY/WX    TMP DP  RH WIND       PRES   REMARKS
ESTEVAN        NOT AVBL
KINDERSLEY     PTCLDY    41  34  75 NW7       30.13
LLOYDMINSTER   CLEAR     39  32  75 W12       30.10R
PRINCE ALBERT  CLOUDY    46  43  87 W8        29.96R
REGINA         MOCLDY    50  48  93 NW12      29.97S
YORKTON        CLOUDY    50  48  93 NW18G24   29.85R  C1F1C2F2C3F3C4F4C5F5C6F6C7F7C8F8C9F9CaFaCbFbCcFcCdFdCe!


USA.gov is the U.S. government's official web portal to all federal, state and local government web resources and services.